Location: Baili�vre
(50.0696°N, 4.2409°E)
Time: 05:34:27
(UTC+00:00)

Spot 2 Rocket - Pass Details

Date: 08 August 2020
Orbit: 756 x 773 km, 98.6° (Epoch: 19 September)

Event Time Altitude Azimuth Distance (km) Brightness Sun altitude
Exits shadow 20:11:24 10° 145° (SE) 2,353 5.4 -8.7°
Reaches altitude 10° 20:11:30 10° 145° (SE) 2,314 5.4 -8.7°
Maximum altitude 20:16:27 54° 69° (ENE) 936 3.8 -9.3°
Drops below altitude 10° 20:21:26 10° 353° (N) 2,323 6.7 -10.0°
Sets 20:23:47 0° 349° (N) 3,252 7.6 -10.2°
